Home   Weather   Espoo   Past weeks

Flag for Finland Past Weather in Espoo, Finland — Yesterday and Last 2 Weeks

41 °F


Feels Like: 33 °F
Forecast: 37 / 40 °F
Wind: 14 mph from Southeast

Location: Helsinki-Vantaa

Current Time: Oct 25, 2016 at 1:03:29 AM

Latest Report: Oct 25, 2016 at 12:20 AM

Visibility: 10 mi

Pressure: 30.51 "Hg

Humidity: 57%

Dew Point: 27 °F

Location of EspooLocation

Past Weather in Espoo — Graph


Espoo Temperature Yesterday

Maximum temperature yesterday: 43 °F (at 5:20 PM)
Minimum temperature yesterday: 39 °F (at 1:20 AM)
Average temperature yesterday: 41 °F

High & Low Weather Summary for the Past Weeks

High46 °F (Oct 10, 1:20 PM)100% (Oct 13, 8:50 AM)30.69 "Hg (Oct 13, 8:50 AM)
Low27 °F (Oct 19, 3:50 AM)57% (Oct 19, 2:20 PM)30.33 "Hg (Oct 19, 1:50 AM)
Average39 °F79%30.53 "Hg
* Reported Oct 9 11:20 PM — Oct 24 11:50 PM, Espoo, Weather by CustomWeather, © 2016

Note: Actual official high and low records may vary slightly from our data, if they occured in-between our weather recording intervals... More about our weather records


Espoo Weather History for the Previous 24 Hours

Scroll right to see more
Time TempWeatherWind HumidityBarometerVisibility
11:50 PM
Mon, Oct 24
41 °FClear.13 mph57%30.51 "Hg10 mi
11:20 PM41 °FClear.14 mph57%30.54 "Hg10 mi
10:50 PM41 °FPassing clouds.15 mph61%30.54 "HgN/A
10:20 PM43 °FPassing clouds.17 mph57%30.54 "HgN/A
9:50 PM43 °FPassing clouds.16 mph61%30.54 "HgN/A
9:20 PM43 °FPassing clouds.20 mph61%30.54 "HgN/A
8:50 PM43 °FPartly cloudy.16 mph61%30.54 "HgN/A
8:20 PM43 °FPassing clouds.16 mph61%30.57 "HgN/A
7:50 PM43 °FPassing clouds.18 mph61%30.57 "HgN/A
7:20 PM41 °FPassing clouds.16 mph66%30.57 "HgN/A
6:50 PM43 °FPassing clouds.14 mph66%30.57 "HgN/A
6:20 PM41 °FPassing clouds.13 mph70%30.57 "HgN/A
5:50 PM41 °FPartly cloudy.12 mph70%30.57 "HgN/A
5:20 PM43 °FPartly sunny.14 mph71%30.57 "HgN/A
4:50 PM41 °FPartly sunny.12 mph76%30.57 "HgN/A
4:20 PM41 °FPartly sunny.14 mph76%30.57 "HgN/A
3:50 PM41 °FMore clouds than sun.14 mph76%30.57 "HgN/A
3:20 PM41 °FLight rain. More clouds than sun.13 mph76%30.57 "HgN/A
2:50 PM41 °FLight rain. Partly sunny.14 mph76%30.60 "HgN/A
2:20 PM41 °FLight rain. Partly sunny.12 mph76%30.60 "HgN/A
1:50 PM41 °FLight rain. Partly sunny.14 mph76%30.60 "HgN/A
1:20 PM41 °FPartly sunny.14 mph70%30.60 "HgN/A
12:50 PM41 °FPartly sunny.16 mph70%30.60 "HgN/A
12:20 PM41 °FPartly sunny.17 mph70%30.60 "HgN/A
11:50 AM41 °FPartly sunny.16 mph76%30.60 "HgN/A
11:20 AM39 °FLight rain. Partly sunny.13 mph81%30.60 "HgN/A
10:50 AM39 °FLight rain. Broken clouds.17 mph81%30.60 "HgN/A
10:20 AM39 °FLight rain. Partly sunny.14 mph81%30.60 "HgN/A
9:50 AM39 °FLight rain. Broken clouds.13 mph81%30.60 "HgN/A
9:20 AM39 °FLight rain. Broken clouds.16 mph81%30.60 "HgN/A
8:50 AM39 °FLight rain. Partly sunny.16 mph81%30.60 "HgN/A
8:20 AM39 °FLight rain. Passing clouds.14 mph81%30.60 "HgN/A
7:50 AM39 °FLight rain. Partly cloudy.15 mph81%30.60 "HgN/A
7:20 AM39 °FLight rain. Partly cloudy.15 mph81%30.60 "HgN/A
6:50 AM39 °FPartly cloudy.15 mph81%30.60 "HgN/A
6:20 AM39 °FLight rain. Partly cloudy.15 mph81%30.60 "HgN/A
5:50 AM39 °FLight rain. Partly cloudy.13 mph81%30.60 "HgN/A
5:20 AM39 °FPassing clouds.10 mph75%30.60 "HgN/A
4:50 AM39 °FPassing clouds.10 mph81%30.60 "HgN/A
4:20 AM39 °FLight rain. Passing clouds.10 mph81%30.60 "HgN/A
3:50 AM39 °FLight rain. Passing clouds.12 mph81%30.60 "HgN/A
3:20 AM39 °FLight rain. Passing clouds.13 mph81%30.60 "HgN/A
2:50 AM39 °FLight rain. Passing clouds.12 mph81%30.60 "HgN/A
2:20 AM39 °FLight rain. Passing clouds.10 mph81%30.60 "HgN/A
1:50 AM39 °FLight rain. Passing clouds.10 mph81%30.60 "HgN/A
1:20 AM39 °FLight rain. Passing clouds.15 mph81%30.60 "HgN/A
Weather by CustomWeather, © 2016

See weather overviewHow to use our weather pages